Time,TemperatureF,DewpointF,PressureIn,WindDirection,WindDirectionDegrees,WindSpeedMPH,WindSpeedGustMPH,Humidity,HourlyPrecipIn,Conditions,Clouds,dailyrainin,SoftwareType,DateUTC
2013-06-25 00:01:00,62.9,62.9,26.93,SSE,151,2.0,3.0,100,0.00,,,-99.99,VWS V12.07,2013-06-25 04:01:00,
2013-06-25 00:31:00,62.8,62.8,26.92,SSE,151,2.0,2.0,100,0.00,,,-99.99,VWS V12.07,2013-06-25 04:31:00,
2013-06-25 01:01:00,62.7,62.7,26.92,SSE,151,0.0,3.0,100,0.00,,,-99.99,VWS V12.07,2013-06-25 05:01:00,
2013-06-25 01:31:00,62.5,62.5,26.92,SSE,151,3.0,4.0,100,0.00,,,-99.99,VWS V12.07,2013-06-25 05:31:00,
2013-06-25 02:01:00,62.1,62.1,26.92,SSE,151,1.0,3.0,100,0.00,,,-99.99,VWS V12.07,2013-06-25 06:01:00,
2013-06-25 02:31:00,62.1,62.1,26.91,SSE,151,0.0,3.0,100,0.00,,,-99.99,VWS V12.07,2013-06-25 06:31:00,
2013-06-25 03:01:00,61.7,61.7,26.91,SSE,151,1.0,3.0,100,0.00,,,-99.99,VWS V12.07,2013-06-25 07:01:00,
2013-06-25 03:31:00,62.5,62.5,26.90,SSE,151,2.0,5.0,100,0.00,,,-99.99,VWS V12.07,2013-06-25 07:31:00,
2013-06-25 04:01:00,62.9,62.9,26.90,SSE,151,0.0,1.0,100,0.00,,,-99.99,VWS V12.07,2013-06-25 08:01:00,
2013-06-25 04:31:00,62.7,62.7,26.91,SSE,151,0.0,2.0,100,0.00,,,-99.99,VWS V12.07,2013-06-25 08:31:00,
2013-06-25 05:01:00,62.2,62.2,26.89,SSE,151,0.0,2.0,100,0.00,,,-99.99,VWS V12.07,2013-06-25 09:01:00,
2013-06-25 05:31:00,61.7,61.7,26.91,SSE,151,1.0,2.0,100,0.00,,,-99.99,VWS V12.07,2013-06-25 09:31:00,
2013-06-25 06:01:00,62.8,62.8,26.92,SSE,148,0.0,1.0,100,0.00,,,-99.99,VWS V12.07,2013-06-25 10:01:00,
2013-06-25 06:31:00,65.3,65.3,26.92,SE,145,1.0,4.0,100,0.00,,,-99.99,VWS V12.07,2013-06-25 10:31:00,
2013-06-25 07:01:00,65.7,65.7,26.93,SSE,153,1.0,3.0,100,0.00,,,-99.99,VWS V12.07,2013-06-25 11:01:00,
2013-06-25 07:31:00,68.2,68.2,26.93,South,179,1.0,3.0,100,0.00,,,-99.99,VWS V12.07,2013-06-25 11:31:00,
2013-06-25 08:01:00,70.0,70.0,26.94,South,179,0.0,3.0,100,0.00,,,-99.99,VWS V12.07,2013-06-25 12:01:00,
2013-06-25 08:31:00,70.7,69.5,26.94,SW,222,6.0,6.0,96,0.00,,,-99.99,VWS V12.07,2013-06-25 12:31:00,
2013-06-25 09:01:00,71.5,69.4,26.94,South,184,3.0,4.0,93,0.00,,,-99.99,VWS V12.07,2013-06-25 13:01:00,
2013-06-25 09:31:00,72.9,69.8,26.94,South,189,3.0,6.0,90,0.00,,,-99.99,VWS V12.07,2013-06-25 13:31:00,
2013-06-25 10:01:00,73.4,69.3,26.94,South,176,4.0,6.0,87,0.00,,,-99.99,VWS V12.07,2013-06-25 14:01:00,
2013-06-25 10:31:00,74.2,70.4,26.94,SSE,147,3.0,6.0,88,0.00,,,-99.99,VWS V12.07,2013-06-25 14:31:00,
2013-06-25 11:01:00,75.3,68.7,26.94,South,174,5.0,7.0,80,0.00,,,-99.99,VWS V12.07,2013-06-25 15:01:00,
2013-06-25 11:31:00,76.7,69.7,26.93,South,170,4.0,5.0,79,0.00,,,-99.99,VWS V12.07,2013-06-25 15:31:00,
2013-06-25 12:01:00,76.7,69.3,26.93,South,187,1.0,6.0,78,0.00,,,-99.99,VWS V12.07,2013-06-25 16:01:00,
2013-06-25 12:31:00,77.1,69.0,26.92,SSE,152,1.0,4.0,76,0.00,,,-99.99,VWS V12.07,2013-06-25 16:31:00,
2013-06-25 13:01:00,77.4,69.6,26.90,WNW,300,1.0,1.0,77,0.00,,,-99.99,VWS V12.07,2013-06-25 17:01:00,
2013-06-25 13:31:00,76.5,66.8,26.89,SSE,148,2.0,6.0,72,0.00,,,-99.99,VWS V12.07,2013-06-25 17:31:00,
2013-06-25 14:01:00,74.1,69.3,26.90,SSE,148,0.0,2.0,85,0.00,,,-99.99,VWS V12.07,2013-06-25 18:01:00,
2013-06-25 14:31:00,73.5,68.7,26.89,SSE,148,0.0,2.0,85,0.00,,,-99.99,VWS V12.07,2013-06-25 18:31:00,
2013-06-25 15:01:00,72.4,69.9,26.89,ENE,68,0.0,3.0,92,0.00,,,-99.99,VWS V12.07,2013-06-25 19:01:00,
2013-06-25 15:31:00,71.7,70.2,26.88,ENE,68,0.0,1.0,95,0.00,,,-99.99,VWS V12.07,2013-06-25 19:31:00,
2013-06-25 16:01:00,72.5,71.0,26.88,ENE,69,2.0,4.0,95,0.00,,,-99.99,VWS V12.07,2013-06-25 20:01:00,
2013-06-25 16:31:00,73.9,69.8,26.86,NNW,346,0.0,3.0,87,0.00,,,-99.99,VWS V12.07,2013-06-25 20:31:00,
2013-06-25 17:01:00,71.9,71.0,26.86,ESE,105,0.0,0.0,97,0.00,,,-99.99,VWS V12.07,2013-06-25 21:01:00,
2013-06-25 17:31:00,71.0,70.4,26.84,ESE,105,0.0,1.0,98,0.00,,,-99.99,VWS V12.07,2013-06-25 21:31:00,
2013-06-25 18:01:00,71.0,70.4,26.84,ESE,105,0.0,2.0,98,0.00,,,-99.99,VWS V12.07,2013-06-25 22:01:00,
2013-06-25 18:31:00,72.2,69.8,26.86,ESE,105,0.0,2.0,92,0.00,,,-99.99,VWS V12.07,2013-06-25 22:31:00,
2013-06-25 19:01:00,71.9,69.4,26.86,ESE,106,2.0,4.0,92,0.00,,,-99.99,VWS V12.07,2013-06-25 23:01:00,
2013-06-25 19:31:00,70.7,68.6,26.86,ESE,108,1.0,3.0,93,0.00,,,-99.99,VWS V12.07,2013-06-25 23:31:00,
2013-06-25 20:01:00,69.5,68.3,26.86,ESE,110,1.0,4.0,96,0.00,,,-99.99,VWS V12.07,2013-06-26 00:01:00,
2013-06-25 20:31:00,67.5,67.5,26.86,ESE,110,1.0,2.0,100,0.00,,,-99.99,VWS V12.07,2013-06-26 00:31:00,
2013-06-25 21:01:00,66.5,66.5,26.86,ESE,110,0.0,0.0,100,0.00,,,-99.99,VWS V12.07,2013-06-26 01:01:00,
2013-06-25 21:31:00,65.7,65.7,26.86,ESE,110,2.0,3.0,100,0.00,,,-99.99,VWS V12.07,2013-06-26 01:31:00,
2013-06-25 22:01:00,65.3,65.3,26.86,ESE,110,0.0,2.0,100,0.00,,,-99.99,VWS V12.07,2013-06-26 02:01:00,
2013-06-25 22:31:00,64.6,64.6,26.86,ESE,110,0.0,2.0,100,0.00,,,-99.99,VWS V12.07,2013-06-26 02:31:00,
2013-06-25 23:01:00,64.8,64.8,26.86,ESE,110,0.0,3.0,100,0.00,,,-99.99,VWS V12.07,2013-06-26 03:01:00,
2013-06-25 23:31:00,64.3,64.3,26.85,ESE,110,0.0,0.0,100,0.00,,,-99.99,VWS V12.07,2013-06-26 03:31:00,